Dewpoint
-5 -2 -1 -0 1 -1 -3 -5 -9 -10 -13 -15 -16 -16 -12 -8 -5 -1 1 2 2 1 1 1 1 0 -2 -2 -2 -2 -2 -4 -5 -5 -3 1 5 7 8 10 11 12 12
-2 -1 0 1 -0 -1 -3 -6 -11 -14 -18 -22 -24 -24 -24 -20 -10 -7 -3 1 3 3 3 2 1 1 1 -1 -0 0 -0 -1 -1 0 2 5 5 6 4 6 9 10 11
-1 -0 1 1 1 -1 -4 -8 -11 -13 -17 -23 -25 -26 -27 -27 -27 -24 -18 -10 0 3 4 3 3 3 3 1 1 1 1 1 -0 -0 4 3 4 5 6 6 6 5 8
-1 1 1 1 -0 -3 -4 -8 -9 -11 -17 -23 -25 -27 -28 -27 -28 -28 -28 -26 -23 -5 3 4 4 4 4 4 3 3 3 2 1 1 0 1 5 6 7 7 8 7 8
0 0 -3 -3 -3 -3 -4 -6 -8 -11 -17 -23 -27 -28 -27 -26 -27 -25 -16 -6 -1 0 -9 3 3 3 2 3 2 2 2 2 1 1 1 1 1 3 6 7 6 8 8
-0 -2 -3 -2 -2 -2 -3 -5 -7 -12 -17 -24 -28 -27 -26 -25 -17 0 2 2 0 -0 1 -1 4 3 1 0 -1 1 3 2 2 2 1 2 4 4 6 7 6 6 6
-2 -2 -2 -2 -3 -3 -3 -5 -7 -13 -17 -25 -27 -25 -25 -17 2 2 1 0 0 -0 1 -1 3 3 0 -0 0 -0 -1 2 3 3 2 2 1 2 4 6 7 7 7
-3 -2 -2 -2 -2 -2 -3 -4 -7 -13 -17 -25 -26 -25 -25 0 2 2 1 1 1 0 -0 1 3 4 2 0 -1 1 1 3 3 3 2 2 2 1 1 4 6 6 7
-3 -3 -2 -3 -3 -2 -2 -4 -6 -11 -16 -26 -26 -25 -19 2 3 1 2 2 2 2 2 4 3 2 2 0 -1 -1 -2 -1 -0 1 1 1 1 2 2 1 3 5 6
-3 -4 -6 -5 -3 -2 -2 -3 -5 -10 -15 -25 -26 -25 -20 2 3 2 2 2 3 3 3 3 2 2 1 0 0 0 -1 -1 -1 -0 0 1 1 1 1 2 2 3 4
-3 -3 -2 -6 -5 -3 -2 -3 -6 -8 -14 -24 -26 -25 -23 0 2 2 2 2 2 2 2 2 1 1 1 1 1 1 1 1 1 1 2 2 1 2 3 2 2 2 2
-2 -2 -6 -8 -5 -5 -4 -4 -7 -8 -14 -23 -27 -25 -21 -15 1 2 2 2 2 3 3 2 1 2 2 2 2 2 2 2 2 2 2 2 2 1 2 2 3 3 2
-9 -9 -9 -7 -7 -8 -4 -3 -6 -8 -13 -19 -26 -24 -22 -21 -13 1 1 2 2 2 3 3 3 3 4 3 3 3 2 2 2 1 2 3 2 1 2 1 2 2 2
-8 -8 -8 -7 -6 -9 -4 -4 -7 -7 -11 -17 -25 -25 -25 -23 -20 -13 -2 1 1 2 2 2 2 3 3 4 3 4 4 3 2 1 3 3 1 1 2 2 2 2 3
-8 -8 -7 -7 -6 -8 -3 -5 -7 -6 -9 -14 -23 -24 -24 -23 -21 -19 -17 -7 -1 1 2 2 1 3 3 3 3 3 3 3 3 3 2 2 2 2 2 2 2 3 3
-8 -8 -7 -6 -7 -6 -5 -5 -5 -5 -7 -11 -18 -24 -24 -24 -23 -22 -21 -20 -18 -12 -6 -3 -1 -0 0 1 1 2 2 3 3 3 3 2 1 1 3 3 3 3 4
-9 -8 -10 -10 -11 -5 -5 -5 -4 -5 -5 -8 -13 -21 -23 -23 -22 -22 -22 -21 -19 -18 -16 -16 -15 -15 -14 -9 -2 0 1 1 2 3 3 3 3 3 1 0 2 2 3
-11 -9 -8 -7 -9 -5 -4 -4 -3 -4 -4 -5 -9 -15 -22 -23 -23 -22 -22 -21 -19 -17 -16 -16 -16 -15 -14 -12 -6 0 1 1 1 1 2 3 4 4 4 3 3 3 3
-8 -10 -8 -7 -7 -9 -9 -5 -3 -2 -4 -4 -5 -9 -15 -21 -22 -21 -21 -20 -19 -18 -17 -16 -16 -16 -16 -13 -5 -0 1 0 1 2 2 3 3 4 4 5 5 6 6
-7 -7 -7 -6 -6 -7 -10 -11 -7 -3 -3 -2 -3 -5 -10 -16 -21 -20 -21 -21 -19 -18 -18 -16 -15 -14 -15 -15 -10 -1 -0 0 0 0 1 1 2 2 3 3 4 4 5
-6 -6 -7 -6 -6 -5 -8 -11 -10 -8 -4 -1 -2 -3 -5 -10 -16 -20 -20 -20 -20 -19 -18 -17 -16 -15 -15 -14 -15 -4 -1 -1 -1 0 1 1 1 1 2 3 3 3 4
-6 -6 -9 -10 -8 -5 -6 -9 -10 -10 -5 -2 -1 -1 -3 -5 -9 -16 -20 -21 -20 -19 -18 -18 -17 -16 -15 -14 -14 -12 -4 -1 -1 -1 -1 -1 -1 -0 0 1 2 2 2
-7 -9 -9 -9 -9 -6 -7 -8 -10 -9 -6 -4 -2 -1 -1 -2 -4 -9 -15 -19 -20 -20 -19 -18 -17 -17 -15 -15 -14 -13 -13 -12 -9 -7 -9 -10 -11 -8 -3 -1 -1 -1 -1
-7 -9 -9 -9 -9 -10 -9 -9 -9 -7 -5 -4 -2 -1 -0 -1 -2 -4 -9 -15 -18 -19 -19 -19 -18 -17 -16 -15 -15 -15 -14 -13 -13 -13 -14 -14 -13 -13 -14 -14 -13 -10 -4
-7 -8 -8 -6 -5 -5 -5 -5 -8 -8 -8 -6 -4 -2 -0 -0 -1 -2 -5 -9 -15 -18 -18 -18 -18 -18 -17 -16 -15 -15 -13 -13 -14 -13 -13 -13 -13 -14 -13 -13 -13 -13 -13
-7 -7 -7 -7 -8 -8 -6 -5 -6 -6 -8 -8 -8 -6 -3 -1 -0 -0 -1 -3 -7 -14 -18 -18 -17 -16 -16 -16 -16 -17 -16 -15 -14 -13 -12 -13 -13 -13 -13 -13 -12 -11 -11
Wind_Speed
15 15 14 13 12 11 12 13 16 18 21 23 24 24 24 24 21 17 20 22 25 26 28 31 34 38 42 39 37 35 36 37 37 38 40 38 39 39 37 36 49 48 44
16 15 13 11 11 11 13 15 16 18 21 23 24 26 27 26 25 24 20 19 22 23 25 25 26 27 34 39 37 33 34 36 34 31 26 28 30 32 38 38 43 45 40
15 12 11 10 11 12 14 15 17 19 21 23 25 26 27 26 26 26 27 22 22 21 22 23 24 22 22 28 31 33 34 35 37 34 24 16 24 22 29 33 36 39 44
12 10 10 11 12 13 16 17 18 20 21 23 25 26 28 30 30 31 31 30 26 23 24 24 22 21 21 23 24 24 27 29 32 31 34 36 33 22 21 24 28 31 39
9 9 10 12 12 15 17 18 19 20 21 22 25 27 28 30 31 30 32 32 33 30 24 23 23 22 21 22 22 24 26 27 29 30 29 32 35 37 37 35 29 27 30
9 9 11 14 15 15 17 19 20 21 22 24 25 25 27 28 29 32 33 34 32 26 20 20 20 20 19 21 22 23 24 26 29 30 29 31 29 30 31 35 38 39 38
9 6 10 12 14 16 17 20 21 21 22 24 24 24 25 27 31 31 31 28 29 24 11 13 14 15 16 17 19 21 23 25 27 29 31 32 36 36 36 34 35 33 34
13 10 12 16 17 18 19 20 21 22 22 24 24 24 24 26 26 26 22 22 21 16 6 8 10 14 15 16 17 19 22 23 26 28 29 32 34 35 41 39 35 34 31
13 14 16 19 20 19 20 21 21 22 22 24 24 23 22 23 25 20 15 15 14 13 10 10 11 12 15 16 18 20 22 22 25 27 28 30 33 35 36 41 41 36 32
13 10 14 20 21 20 20 21 22 23 23 24 23 23 21 22 22 17 13 13 14 15 15 14 13 14 17 18 19 21 22 23 25 26 28 29 30 32 35 38 40 38 39
15 16 22 26 23 21 20 20 21 23 23 23 23 23 21 20 22 20 15 14 13 14 15 16 17 17 17 17 19 20 21 23 24 25 28 30 31 33 33 35 35 38 36
22 23 29 30 21 20 19 19 19 21 22 22 22 23 22 20 20 20 20 15 14 15 17 17 17 18 17 18 18 20 21 23 25 27 29 31 29 29 31 34 33 34 34
31 34 31 20 19 19 19 18 19 19 20 21 20 20 22 21 18 18 19 18 15 15 16 18 18 18 18 18 18 21 21 23 24 22 25 28 27 29 28 29 31 30 34
25 22 20 19 19 20 19 19 19 18 18 18 19 18 20 21 19 17 16 16 16 16 16 18 18 18 18 20 21 21 23 22 22 22 24 23 21 23 25 27 26 26 30
28 23 20 19 18 20 18 18 18 17 17 17 17 17 18 19 20 19 17 16 15 14 14 15 16 18 18 18 20 23 24 23 22 21 19 17 17 20 21 22 24 21 20
30 25 21 21 21 18 17 19 18 17 18 17 17 18 18 18 19 19 19 18 18 16 16 16 15 16 18 19 20 22 25 24 22 20 18 16 14 14 16 17 17 16 17
23 14 15 19 20 17 18 19 18 17 18 18 17 17 17 17 17 18 18 18 18 16 15 16 16 16 17 17 19 19 21 27 27 23 19 18 16 15 17 16 17 17 18
18 13 15 18 20 19 20 20 19 19 18 17 18 18 18 17 17 17 17 17 17 17 17 16 15 15 16 16 16 19 21 19 20 23 22 19 18 17 17 17 17 18 20
25 21 20 20 21 21 20 21 22 21 21 19 18 18 19 18 17 17 16 17 17 17 17 18 17 16 16 18 17 18 15 13 8 10 16 18 19 19 17 15 15 16 18
32 31 28 28 25 22 21 22 21 23 24 19 19 19 18 18 17 18 17 16 17 18 17 17 17 17 16 16 15 15 13 9 7 8 9 12 15 19 18 19 17 17 18
33 31 31 31 29 25 24 24 22 23 18 20 21 20 19 19 19 18 18 17 16 16 16 16 17 17 17 16 16 11 11 10 8 7 9 11 11 11 10 10 12 16 20
34 29 26 27 26 26 25 25 25 20 18 20 20 20 19 19 19 19 18 18 17 16 15 15 15 16 15 15 14 11 8 7 8 8 9 10 13 14 11 8 8 9 10
31 25 24 22 20 20 22 27 25 19 18 21 21 20 20 20 19 19 18 18 17 17 16 16 16 15 15 15 13 8 7 6 6 7 9 9 9 7 7 8 7 6 5
26 23 19 20 21 20 21 23 21 19 20 21 21 20 20 20 20 20 19 19 18 17 16 16 16 16 14 15 15 12 8 7 6 6 6 7 7 6 5 4 3 3 3
26 21 21 25 26 23 23 22 20 20 21 21 20 21 22 21 21 21 20 20 19 19 18 17 15 14 13 14 15 12 11 10 8 7 7 7 7 6 4 3 3 4 3
26 24 24 25 24 22 21 18 19 19 17 18 19 19 20 21 22 22 21 21 20 21 20 18 17 16 15 13 13 14 12 11 11 8 9 9 7 5 3 3 2 2 2
Wind_Direction
249 236 251 270 283 291 301 312 322 323 324 323 322 320 322 324 323 309 289 285 283 281 278 276 271 262 257 258 260 261 263 262 263 265 266 265 259 258 261 265 256 256 242
217 228 252 267 274 283 303 314 321 324 324 323 323 322 322 321 323 322 316 302 291 284 281 279 279 272 261 254 255 257 262 265 264 264 266 268 269 265 257 257 257 259 259
213 231 248 256 277 290 304 313 318 324 322 321 323 321 318 316 315 313 311 312 299 287 282 281 280 277 268 260 257 256 258 262 263 259 245 260 251 266 262 257 256 260 260
224 239 253 266 282 298 305 313 320 323 322 323 322 320 320 320 321 318 315 310 303 295 279 276 275 275 274 268 265 262 263 264 266 267 260 249 248 261 267 259 255 251 251
241 254 272 283 288 298 302 310 316 321 319 322 323 322 321 321 318 317 311 307 303 295 286 272 270 270 272 272 269 263 260 259 260 262 262 261 257 252 254 258 253 256 251
261 282 298 296 297 298 303 308 315 321 319 325 326 322 321 319 319 322 319 316 315 308 277 273 264 270 274 272 271 267 263 261 263 264 264 258 253 251 247 248 251 250 249
257 299 329 321 309 306 304 306 316 323 323 326 324 325 325 326 326 324 324 330 330 331 280 273 260 267 271 276 275 272 266 262 264 266 267 264 258 255 253 255 257 250 249
244 286 319 324 320 311 308 310 315 321 323 328 329 329 327 326 326 328 340 342 337 341 313 311 277 273 274 283 284 276 271 267 266 267 267 267 265 260 255 255 256 258 255
259 290 309 311 311 307 309 308 314 322 324 328 327 326 325 325 330 335 348 342 344 352 344 324 305 291 284 287 289 285 283 277 274 272 271 270 267 264 260 257 256 254 255
277 300 324 320 314 306 305 306 314 320 323 324 324 324 325 331 338 336 337 337 347 343 334 325 310 298 293 292 291 289 288 286 284 282 278 276 274 268 262 257 256 252 251
274 284 309 320 307 303 301 304 311 317 319 323 325 324 329 331 340 339 327 324 327 318 317 311 307 303 300 297 290 287 286 285 285 282 283 282 280 271 268 262 258 255 251
298 283 297 304 299 299 296 296 305 311 315 323 328 326 330 329 337 340 338 305 308 312 313 307 304 304 306 301 293 291 290 288 285 283 283 279 278 274 274 264 261 258 255
299 292 292 286 295 301 295 292 301 309 316 323 327 327 326 328 333 338 342 338 308 307 312 313 312 310 309 305 295 293 290 286 294 285 288 288 282 275 269 259 256 262 252
311 312 306 300 299 304 292 292 299 306 313 319 323 326 325 326 331 330 335 338 336 327 320 312 310 308 307 302 296 293 287 286 287 289 294 295 291 272 261 261 258 257 258
304 305 301 297 290 298 284 288 295 300 307 313 319 323 325 327 330 331 331 330 331 329 327 323 321 310 304 299 290 288 289 285 287 287 285 287 288 272 265 263 260 258 254
306 303 299 297 296 293 287 290 294 295 302 305 313 320 323 326 328 330 330 329 328 326 324 321 320 316 314 315 307 292 285 286 284 284 284 277 277 275 269 261 257 252 255
317 311 316 315 304 293 299 298 293 294 297 304 309 316 319 322 325 329 330 331 331 332 331 329 330 328 322 319 318 315 303 276 273 279 283 280 279 276 270 265 262 257 254
310 303 321 331 322 297 298 298 293 291 291 297 305 310 315 320 324 327 328 329 330 333 334 335 336 338 335 331 335 336 326 309 275 274 273 278 275 275 277 274 260 252 250
316 294 302 311 323 314 300 293 290 292 293 297 300 305 311 317 321 322 327 330 332 334 338 337 339 341 341 341 348 349 351 348 325 278 272 273 275 272 275 276 274 265 261
311 305 297 299 303 317 296 295 290 289 295 299 295 301 306 311 317 321 323 328 332 334 337 340 338 340 344 342 351 358 2 356 337 313 302 297 292 285 277 269 262 268 264
319 316 303 295 295 301 293 293 292 285 293 290 293 296 302 308 312 315 319 323 327 330 333 335 336 338 340 344 345 358 5 11 357 337 325 327 327 316 309 286 255 255 257
320 314 310 301 294 288 288 292 294 299 283 278 283 289 293 298 304 309 313 317 320 324 328 331 333 334 336 340 342 342 345 352 347 345 344 339 335 335 334 317 295 281 266
321 319 315 309 307 298 292 294 301 291 279 273 276 283 286 290 295 300 304 307 311 316 320 326 330 334 336 339 339 332 334 335 326 327 332 343 340 337 334 327 326 319 279
318 317 312 314 314 312 306 302 299 292 284 281 279 278 283 287 290 293 297 301 304 307 311 316 322 327 332 333 338 341 335 327 331 335 338 343 348 353 353 349 338 322 294
317 315 311 314 311 303 303 308 298 287 286 284 282 279 280 283 287 288 291 295 299 301 305 307 308 313 319 324 328 332 331 330 322 317 321 325 323 319 328 345 357 358 359
326 313 305 306 308 303 294 286 294 289 284 286 286 282 276 273 273 278 284 288 292 294 297 301 304 307 311 318 321 320 323 319 320 313 313 312 310 317 327 332 352 35 40
Height
1521 1522 1523 1524 1523 1521 1520 1518 1516 1513 1509 1506 1502 1500 1497 1493 1491 1488 1486 1485 1483 1482 1480 1478 1478 1480 1481 1483 1485 1486 1486 1487 1489 1489 1488 1488 1489 1490 1490 1491 1491 1488 1488
1515 1518 1519 1519 1519 1518 1516 1515 1512 1510 1506 1502 1498 1495 1491 1489 1485 1482 1481 1479 1477 1475 1473 1471 1470 1470 1470 1472 1475 1478 1478 1478 1481 1482 1483 1480 1481 1478 1480 1482 1481 1480 1482
1511 1514 1516 1516 1515 1515 1513 1511 1509 1506 1503 1499 1495 1491 1488 1485 1481 1478 1475 1474 1471 1469 1467 1466 1465 1463 1464 1463 1465 1468 1470 1470 1471 1474 1476 1476 1471 1474 1472 1471 1472 1472 1472
1508 1511 1512 1512 1512 1511 1509 1507 1505 1502 1499 1495 1491 1487 1482 1478 1476 1472 1469 1466 1465 1463 1461 1459 1459 1458 1459 1459 1459 1461 1463 1464 1463 1466 1467 1466 1467 1467 1465 1464 1464 1465 1464
1506 1507 1508 1508 1509 1507 1506 1504 1501 1499 1495 1491 1487 1483 1479 1475 1470 1467 1462 1459 1457 1455 1452 1452 1453 1453 1452 1454 1453 1454 1454 1455 1456 1456 1458 1458 1458 1460 1461 1456 1458 1459 1458
1505 1506 1506 1505 1505 1504 1502 1500 1498 1496 1492 1488 1484 1480 1475 1471 1466 1460 1455 1450 1444 1442 1443 1444 1446 1447 1447 1448 1447 1448 1449 1450 1449 1449 1450 1451 1451 1451 1452 1450 1449 1450 1451
1504 1505 1504 1503 1502 1501 1499 1497 1495 1492 1489 1485 1481 1476 1471 1466 1461 1456 1449 1444 1439 1435 1435 1437 1440 1442 1442 1442 1441 1441 1442 1442 1442 1443 1443 1443 1443 1444 1443 1444 1441 1441 1442
1502 1502 1502 1501 1499 1497 1495 1493 1491 1488 1485 1480 1476 1472 1467 1463 1458 1452 1447 1443 1439 1436 1435 1435 1436 1437 1437 1436 1436 1435 1435 1435 1435 1435 1435 1435 1434 1435 1435 1436 1436 1435 1434
1500 1500 1499 1498 1495 1493 1491 1489 1487 1483 1480 1475 1472 1469 1464 1460 1455 1450 1446 1444 1442 1437 1434 1434 1433 1434 1433 1432 1431 1430 1429 1429 1428 1427 1426 1425 1425 1425 1426 1427 1428 1428 1427
1498 1497 1496 1494 1492 1490 1488 1486 1482 1479 1476 1472 1469 1465 1461 1457 1451 1447 1444 1442 1438 1436 1434 1433 1432 1431 1430 1429 1427 1425 1424 1423 1421 1420 1419 1418 1417 1417 1417 1417 1419 1419 1419
1494 1493 1491 1490 1488 1486 1484 1481 1479 1476 1473 1470 1466 1462 1458 1454 1448 1444 1440 1438 1436 1435 1432 1430 1429 1426 1425 1423 1421 1420 1418 1417 1415 1414 1412 1410 1409 1408 1408 1409 1410 1410 1411
1492 1488 1486 1484 1482 1479 1477 1475 1474 1471 1469 1466 1462 1459 1455 1451 1447 1442 1438 1434 1432 1431 1429 1427 1424 1422 1420 1418 1416 1414 1413 1411 1410 1408 1406 1403 1402 1400 1400 1401 1401 1402 1403
1483 1480 1478 1477 1476 1474 1473 1471 1470 1468 1465 1462 1458 1455 1451 1448 1444 1441 1437 1433 1430 1428 1425 1423 1420 1417 1415 1413 1411 1409 1407 1406 1405 1402 1400 1396 1394 1392 1392 1392 1392 1394 1395
1479 1476 1475 1474 1472 1470 1468 1467 1465 1462 1460 1457 1454 1451 1448 1445 1441 1438 1434 1431 1428 1425 1423 1419 1416 1414 1411 1408 1406 1404 1401 1399 1398 1396 1393 1390 1387 1386 1386 1387 1388 1387 1387
1473 1472 1469 1467 1466 1463 1462 1460 1459 1458 1456 1453 1450 1447 1444 1441 1438 1435 1431 1427 1425 1422 1418 1416 1414 1410 1406 1403 1400 1398 1396 1393 1391 1390 1388 1386 1384 1382 1382 1382 1381 1381 1381
1469 1467 1465 1464 1462 1459 1458 1456 1455 1453 1451 1448 1445 1443 1440 1437 1434 1430 1427 1424 1421 1418 1415 1412 1409 1406 1403 1399 1395 1392 1389 1388 1385 1384 1383 1382 1380 1380 1378 1378 1377 1378 1377
1464 1462 1461 1460 1457 1456 1454 1452 1450 1448 1447 1445 1442 1440 1436 1433 1430 1427 1424 1421 1418 1414 1410 1407 1404 1401 1398 1394 1391 1387 1383 1380 1380 1379 1378 1377 1376 1375 1374 1373 1373 1372 1372
1461 1460 1458 1455 1453 1452 1450 1448 1446 1444 1441 1439 1438 1436 1433 1430 1427 1424 1421 1417 1414 1410 1407 1403 1399 1395 1392 1389 1386 1382 1377 1372 1371 1373 1373 1372 1371 1371 1370 1369 1367 1367 1367
1459 1455 1452 1450 1447 1445 1443 1442 1442 1440 1437 1436 1434 1432 1429 1427 1424 1421 1418 1415 1411 1407 1404 1400 1397 1393 1388 1385 1382 1378 1373 1370 1369 1368 1368 1367 1367 1366 1365 1365 1364 1363 1363
1455 1452 1449 1445 1442 1440 1437 1435 1433 1434 1434 1432 1429 1428 1426 1423 1420 1418 1415 1411 1408 1404 1401 1397 1394 1391 1387 1382 1378 1376 1372 1369 1367 1366 1365 1364 1362 1360 1360 1359 1359 1358 1358
1448 1445 1441 1437 1436 1435 1432 1428 1426 1424 1425 1426 1425 1423 1421 1419 1417 1414 1411 1409 1406 1402 1399 1395 1391 1388 1385 1382 1377 1373 1371 1369 1366 1364 1363 1361 1359 1357 1356 1355 1354 1353 1353
1439 1437 1433 1430 1428 1427 1425 1423 1420 1420 1418 1416 1416 1417 1416 1414 1412 1410 1408 1405 1403 1400 1396 1393 1390 1386 1382 1379 1376 1373 1369 1367 1366 1364 1361 1359 1358 1356 1354 1353 1352 1351 1350
1432 1429 1426 1423 1422 1421 1420 1417 1415 1414 1411 1409 1409 1410 1409 1408 1406 1405 1403 1400 1397 1396 1393 1391 1388 1384 1381 1376 1374 1371 1369 1366 1363 1362 1360 1359 1357 1354 1353 1352 1351 1351 1350
1425 1422 1419 1418 1416 1415 1414 1412 1409 1408 1407 1404 1403 1403 1402 1402 1401 1399 1397 1395 1393 1391 1388 1386 1383 1382 1379 1375 1370 1368 1367 1364 1363 1359 1358 1357 1356 1354 1352 1351 1349 1348 1348
1420 1417 1414 1411 1409 1407 1406 1404 1402 1401 1400 1398 1398 1396 1395 1395 1394 1394 1392 1389 1388 1386 1385 1383 1379 1376 1374 1373 1370 1365 1363 1362 1360 1359 1357 1354 1354 1353 1351 1349 1348 1347 1347
1415 1412 1409 1405 1403 1401 1399 1395 1394 1393 1392 1391 1390 1389 1387 1386 1385 1385 1384 1383 1382 1379 1378 1377 1376 1375 1371 1369 1367 1365 1361 1359 1358 1356 1355 1353 1351 1350 1350 1349 1347 1346 1345